星链-11286 (STARLINK-11286)

导读 | 星芒AI

STARLINK-11286 是由 SpaceX 发射的星链(Starlink)卫星之一,属于其低轨卫星互联网星座计划的一部分。该卫星旨在为全球用户提供高速、低延迟的互联网服务,特别是在偏远和网络覆盖不足的地区。它运行在约 550 公里的低地球轨道,采用可再生太阳能供电,并具备自动避撞功能。作为星链计划的组成部分,STARLINK-11286 有助于构建一个全球性的宽带通信网络,推动互联网接入的普及与技术发展。

基本信息
目录编号:
61050
目录名称:
STARLINK-11286
国际标识:
2024-164A
轨道中心:
EARTH
卫星名称:
星链-11286
卫星全名:
星链-11286 (STARLINK-11286)
卫星状态:
在轨 (已飞行458 天)
发射日期:
2024-09-13 UTC
国别 :
美国 (US)
星等 :
--
轨道信息
数据来源 国际轨道数据 AOE轨道数据
星历时间 2025-12-14T16:10:54+0800
1天前
查看轨道信息
2025-12-10T07:00:00+0800
5天前
查看轨道信息
半长轴 6737.903km 6737.803km
偏心率 0.000095 0.0000779
轨道倾角 53.158° 53.162°
近地点辐角 83.802° 60.647°
升交点赤经 12.029° 33.636°
平近点角 276.311° 359.537°
近地点 359.127km 359.143km
远地点 360.409km 360.193km
周期 91.737分钟 91.735分钟
每日圈数 15.696964 15.697314
详细信息
固有亮度:
5
最大亮度:
2.5
卫星平台:
Starlink V1.0
覆盖范围:
全球
运营商:
太空探索技术公司
运营商所在国:
美国
制造商(研发单位):
太空探索技术公司
制造商所在国:
美国
使用方式:
暂无
卫星简介
Starlink 计划是 SpaceX 推出的全球卫星互联网项目,通过发射低轨道卫星,为全球尤其是偏远地区提供高速、低延迟的互联网服务。自 2019 年起,Starlink 已部署数千颗卫星,旨在缩小全球数字鸿沟,推动互联网普及。该项目还为军事、航空等行业提供通信支持,带来广泛经济效益。
2D轨道图
3D轨道图
轨道高度分析图
轨道倾角分析图
轨道综合分析图
查看轨道综合分析图